SL-14 DEB, 47092

Orbit data source: Space-Track

SL-14 DEB, 47092 is space debris in LEO originally from a launch on Thu, 15 Aug 1991 UTC launched from the Plesetsk Missile And Space Complex (PKMTR). Debris objects in space refer to the collection of defunct objects orbiting the Earth. Examples of debris include non-operational satellites, rocket bodies, and fragments generated from explosions, collisions, or faulty payload assembly.

Loading next visibility...
Identifier
47092, 1991-056DS
Orbit
LEO
Country
Flag of CISCIS
Related business
Manufacturer
Unknown
Mission
Spacecraft
Bus & Motor
Unknown
Mass
Unknown
Launch date (UTC)
1991-08-15 (35 years ago)
Launch vehicle
Unknown
Launch site
Plesetsk Missile And Space Complex (PKMTR)
Object type
Payload
Rocket body
Debris
Shape & HBR
Unknown shape, 0.1 m
Radar Cross Section
Small (<0.1 m²)

Expand to show TLE details & history
Last TLE update: 3 days ago

TLE from 3 days ago
0 SL-14 DEB
1 47092U 91056DS  26251.75910761  .00000863  00000-0  14801-2 0  9998
2 47092  82.5684  18.2670 0084481 337.9963  21.7554 13.42161371285543
Epoch: 2026-09-08T18:13Z
TLE epoch observation values (Epoch: 2026-09-08T18:13:06.897Z)
Latitude
-0.00003°
Longitude
117.16735°
Altitude
1,045.46 km
Speed
7.358 km/s
True Right ascension
01h 13m 04s
True Declination
0° 00' 00"
Sunlit
Object was in full shadow at epoch
Visualization orbit readout
Latitude
Unknown
Longitude
Unknown
Altitude
Unknown
Speed
Unknown
Apparent Right ascension
Unknown
Apparent Declination
Unknown
Sunlit
N/A
Visualization observer readout
Local Sidereal Time
15:40:38
Azimuth
Unknown
Elevation
Unknown
Doppler factor
Unknown
Orbital elements
Apogee altitude
1,161.61 km
Perigee altitude
1,035.284 km
Semi-major axis
7,476.584 km
Eccentricity
0.00845
Inclination
82.5684°
RAAN
18.267°
Arg. of periapsis
337.9963°
True anomaly
22.11776°
Mean anomaly
21.7554°
Eccentric anomaly
21.93623°
Mean motion
3.35729 °/min
Orbital period
107.23 mins
BSTAR
0.0014801
Loading maneuver chart data...
Computing Atmospheric mass density...
Loading historical data...
Loading historical data...
Loading historical data...
Loading historical data...
Loading historical data...
Loading historical data...
Loading historical data...

Documentation

Showing up to 5 results
|